Regional Weather Roundup
Issued by NWS Albany, NY

Home | Current Version | Previous Version | Graphics & Text | Print | Product List | Glossary On
Versions: 1 2 3 4 5 6 7 8 9 10 11 12 13 14 15 16 17 18 19 20 21 22 23 24 25 26 27 28 29 30 31 32 33 34 35 36 37 38 39 40 41 42 43 44 45 46 47 48 49 50
000
ASUS41 KALY 200110
RWRALY

NEW YORK STATE HOURLY WEATHER ROUNDUP
NATIONAL WEATHER SERVICE ALBANY NY
800 PM EST SUN NOV 19 2017

NOTE: "FAIR" INDICATES FEW OR NO CLOUDS BELOW 12,000 FEET WITH NO
SIGNIFICANT WEATHER AND/OR NO OBSTRUCTIONS TO VISIBILITY.

NYZ032-033-038>043-046>054-057>066-NYZ062>081-082-084-200200-
EAST


CITY           SKY/WX    TMP DP  RH WIND       PRES   REMARKS
ALBANY         MOCLDY    35  26  69 W9        29.66R WCI  28
GLENS FALLS    CLOUDY    35  22  58 W10G18    29.62R WCI  27
POUGHKEEPSIE   CLEAR     40  23  50 W10       29.68R WCI  33
NEWBURGH       PTCLDY    37  28  70 W12G21    29.70R WCI  30
MONTGOMERY     MOCLDY    39  26  59 W6        29.69R WCI  35
WHITE PLAINS   PTCLDY    41  24  51 W13       29.69R
ISLIP          PTCLDY    43  26  51 W10       29.70R
NEW YORK CITY  MOCLDY    46  27  47 NW14      29.71R
CENTRAL PARK   CLOUDY    45  25  45 VRB3      29.74R
$$

NYZ005>009-017-018-044>046-055-056-200200-
CENTRAL


CITY           SKY/WX    TMP DP  RH WIND       PRES   REMARKS
FULTON         LGT SNOW  35  28  75 W15G25    29.70R WCI  25
SYRACUSE       LGT SNOW  32  31  96 W15       29.70R VSB 3/4 WCI  22
ROME           CLOUDY    33  29  85 W8        29.68R WCI  26
ELMIRA         CLOUDY    36  25  64 W10       29.74R WCI  28
BINGHAMTON     FLURRIES  30  27  88 NW16G24   29.67R WCI  19
MONTICELLO     CLOUDY    33  26  75 W9        29.67R WCI  25
$$

NYZ026>034-041>043-087-200200-
NORTH


CITY           SKY/WX    TMP DP  RH WIND       PRES   REMARKS
WATERTOWN      PTCLDY    30  26  85 NW5       29.68R WCI  25
FORT DRUM      NOT AVBL
OGDENSBURG     FAIR      30  27  90 W9        29.66R WCI  21
MASSENA        CLOUDY    29  24  82 W13G25    29.66R WCI  19
SARANAC LAKE   CLOUDY    26  22  84 W12G21    29.53R WCI  16
PLATTSBURGH    CLOUDY    32  21  64 NW9G24    29.58R WCI  24
$$

NYZ001>004-010>016-019>021-085-200200-
WEST


CITY           SKY/WX    TMP DP  RH WIND       PRES   REMARKS
NIAGARA FALLS  CLOUDY    34  21  59 NW14      29.81R WCI  25
BUFFALO        FLURRIES  32  23  69 W16G23    29.80R WCI  21
DUNKIRK        CLOUDY    35  26  69 NW18G35   29.83R WCI  24
JAMESTOWN      FLURRIES  28  25  86 W9        29.80R WCI  20
WELLSVILLE     LGT SNOW  30  25  81 NW18G24   29.74R VSB 1   WCI  18
ROCHESTER      FLURRIES  34  29  82 NW10      29.76R WCI  26
PENN YAN       CLOUDY    33  23  66 W13       29.73R WCI  24
$$

             KEY
       WCI = WIND CHILL INDEX
       VSB = VISIBILITY
       HX  = HEAT INDEX
$$



USA.gov is the U.S. government's official web portal to all federal, state and local government web resources and services.